Scottsbluff, NE

10:46 AM MDT on June 23, 2017 (GMT -0600)
Heilig

Weather History for KBFF - November, 2012

Change the Weather History Date:

Saturday, November 10, 2012

  Actual Average Record
Temperature  
Mean Temperature 26 °F 39 °F  
Max Temperature 38 °F 53 °F 76 °F (1958)
Min Temperature 13 °F 24 °F -5 °F (1919)
Degree Days  
Heating Degree Days 39 26  
Month to date heating degree days 195 243  
Since 1 July heating degree days 794 934  
Cooling Degree Days 0 0  
Month to date cooling degree days 0 0  
Year to date cooling degree days 1208 724  
Moisture  
Dew Point 27 °F    
Average Humidity 86    
Maximum Humidity 100    
Minimum Humidity 71    
Precipitation  
Precipitation 0.26 in 0.02 in 0.37 in (1955)
Month to date precipitation 0.26 0.26  
Year to date precipitation 6.77 14.88  
Snow  
Snow 3.70 in 0.20 in 3.70 in (2012)
Month to date snowfall 3.7 1.7  
Since 1 July snowfall 10.2 4.9  
Snow Depth 0.00 in    
Sea Level Pressure  
Sea Level Pressure 29.68 in    
Wind  
Wind Speed 11 mph (NNW)    
Max Wind Speed 22 mph    
Max Gust Speed 28 mph    
Visibility 4 miles    
Events Fog , Rain , Snow    
T = Trace of Precipitation, MM = Missing Value Source: NWS Daily Summary

Daily Weather History Graph

Daily Weather History Graph

Search for Another Location

Airport or City:

Trip Planner

Search our weather history database for the weather conditions in past years. The results will help you decide how hot, cold, wet, or windy it might be!

Date:

Astronomy

Nov. 10, 2012 Rise Set
Actual Time 6:38 AM MST 4:37 PM MST
Civil Twilight 6:08 AM MST 5:07 PM MST
Nautical Twilight 5:35 AM MST 5:40 PM MST
Astronomical Twilight 5:02 AM MST 6:13 PM MST
Moon 2:43 AM MST (11/10) 2:28 PM MST (11/10)
Length of Visible Light 10h 58m
Length of Day
9h 59m
Waning Crescent, 14% of the Moon is Illuminated
Nov 10
Waning Crescent
Nov 13
New
Nov 20
First Quarter
Nov 28
Full
Dec 6
Last Quarter

Hourly Weather History & Observations

Time (MST) Temp. Windchill Dew Point Humidity Pressure Visibility Wind Dir Wind Speed Gust Speed Precip Events Conditions
12:53 AM 36.0 °F 28.0 °F 35.1 °F 97% 29.55 in 1.5 mi ESE 11.5 mph - N/A   Overcast
1:53 AM 36.0 °F 29.6 °F 35.1 °F 97% 29.54 in 1.2 mi ESE 8.1 mph - N/A   Overcast
2:09 AM 35.6 °F 28.6 °F 35.6 °F 100% 29.55 in 2.5 mi ESE 9.2 mph - N/A   Overcast
2:30 AM 35.6 °F 28.0 °F 35.6 °F 100% 29.53 in 3.0 mi ESE 10.4 mph - N/A   Overcast
2:53 AM 36.0 °F 32.1 °F 35.1 °F 97% 29.52 in 2.5 mi ESE 4.6 mph - N/A   Overcast
3:26 AM 35.6 °F 32.8 °F 35.6 °F 100% 29.52 in 3.0 mi East 3.5 mph - N/A   Overcast
3:53 AM 36.0 °F 33.3 °F 35.1 °F 97% 29.52 in 3.0 mi ESE 3.5 mph - N/A   Overcast
4:41 AM 35.6 °F - 35.6 °F 100% 29.56 in 2.5 mi Calm Calm - N/A   Overcast
4:48 AM 35.6 °F 32.8 °F 33.8 °F 93% 29.56 in 3.0 mi North 3.5 mph - N/A   Overcast
4:53 AM 36.0 °F - 35.1 °F 97% 29.57 in 4.0 mi Calm Calm - N/A   Overcast
5:20 AM 35.6 °F 29.2 °F 33.8 °F 93% 29.55 in 5.0 mi NNW 8.1 mph - N/A   Overcast
5:53 AM 36.0 °F 29.0 °F 34.0 °F 93% 29.59 in 6.0 mi NNW 9.2 mph - N/A   Overcast
6:53 AM 36.0 °F 29.6 °F 33.1 °F 89% 29.62 in 8.0 mi NNW 8.1 mph - N/A   Overcast
7:48 AM 37.4 °F 30.8 °F 33.8 °F 87% 29.60 in 9.0 mi NNW 9.2 mph - N/A   Overcast
7:53 AM 37.0 °F 28.9 °F 33.1 °F 86% 29.63 in 10.0 mi NNW 12.7 mph - N/A   Overcast
8:48 AM 37.4 °F 29.8 °F 32.0 °F 81% 29.59 in 10.0 mi North 11.5 mph - N/A   Overcast
8:53 AM 37.9 °F 31.5 °F 32.0 °F 79% 29.61 in 10.0 mi North 9.2 mph - N/A   Overcast
9:53 AM 37.9 °F 32.1 °F 32.0 °F 79% 29.60 in 10.0 mi ENE 8.1 mph - N/A   Overcast
10:42 AM 37.4 °F 32.8 °F 32.0 °F 81% 29.58 in 10.0 mi North 5.8 mph - N/A   Overcast
10:53 AM 37.9 °F 32.7 °F 32.0 °F 79% 29.60 in 10.0 mi North 6.9 mph - N/A   Overcast
11:04 AM 37.4 °F 30.8 °F 32.0 °F 81% 29.58 in 10.0 mi NNW 9.2 mph - 0.00 in Rain Light Rain
11:36 AM 35.6 °F 29.9 °F 32.0 °F 87% 29.60 in 1.8 mi NNW 6.9 mph - 0.02 in Snow Light Snow
11:53 AM 33.1 °F 23.4 °F 32.0 °F 96% 29.64 in 0.8 mi NNW 13.8 mph - 0.04 in Snow Light Snow
12:06 PM 33.8 °F 23.9 °F 30.2 °F 87% 29.59 in 0.5 mi North 15.0 mph - 0.02 in Fog , Snow Snow
12:28 PM 32.0 °F 22.1 °F 30.2 °F 93% 29.60 in 0.5 mi North 13.8 mph - 0.04 in Fog , Snow Snow
12:53 PM 30.9 °F 20.2 °F 28.9 °F 92% 29.66 in 1.0 mi NNW 15.0 mph 21.9 mph 0.05 in Snow Light Snow
1:05 PM 30.2 °F 18.9 °F 28.4 °F 93% 29.61 in 1.8 mi NNW 16.1 mph - 0.01 in Snow Light Snow
1:14 PM 30.2 °F 18.9 °F 28.4 °F 93% 29.61 in 2.5 mi NNW 16.1 mph - 0.01 in Snow Light Snow
1:33 PM 30.2 °F 19.8 °F 26.6 °F 86% 29.62 in 1.5 mi NNW 13.8 mph - 0.01 in Snow Light Snow
1:49 PM 28.4 °F 18.5 °F 26.6 °F 93% 29.62 in 1.2 mi NNW 11.5 mph 21.9 mph 0.01 in Snow Light Snow
1:53 PM 28.9 °F 17.3 °F 26.1 °F 89% 29.68 in 1.2 mi NNW 16.1 mph 21.9 mph 0.01 in Snow Light Snow
2:08 PM 28.4 °F 18.0 °F 26.6 °F 93% 29.64 in 0.8 mi NW 12.7 mph - 0.01 in Snow Light Snow
2:24 PM 26.6 °F 13.4 °F 24.8 °F 93% 29.66 in 0.5 mi NW 18.4 mph - 0.03 in Fog , Snow Snow
2:37 PM 26.6 °F 13.1 °F 24.8 °F 93% 29.66 in 0.2 mi NNW 19.6 mph - 0.04 in Fog , Snow Heavy Snow
2:53 PM 27.0 °F 16.1 °F 24.1 °F 89% 29.73 in 0.2 mi NW 12.7 mph - 0.05 in Fog , Snow Snow
3:05 PM 26.6 °F 15.2 °F 24.8 °F 93% 29.68 in 0.5 mi NW 13.8 mph - 0.02 in Fog , Snow Snow
3:12 PM 26.6 °F 15.2 °F 23.0 °F 86% 29.69 in 0.5 mi NW 13.8 mph - 0.02 in Fog , Snow Light Snow
3:53 PM 26.1 °F 15.6 °F 23.0 °F 88% 29.78 in 0.8 mi NNW 11.5 mph - 0.05 in Snow Light Snow
4:17 PM 24.8 °F 14.6 °F 21.2 °F 86% 29.73 in 1.0 mi NNW 10.4 mph - 0.01 in Snow Light Snow
4:31 PM 24.8 °F 14.6 °F 21.2 °F 86% 29.74 in 1.0 mi NW 10.4 mph 18.4 mph 0.01 in Snow Light Snow
4:53 PM 24.1 °F 12.0 °F 21.0 °F 88% 29.83 in 1.2 mi NNW 13.8 mph - 0.02 in Snow Light Snow
5:53 PM 23.0 °F 9.2 °F 19.9 °F 88% 29.86 in 1.0 mi NNW 17.3 mph - 0.52 in Snow Light Snow
6:17 PM 23.0 °F 10.1 °F 19.4 °F 86% 29.78 in 2.0 mi NW 15.0 mph - 0.47 in Snow Light Snow
6:36 PM 23.0 °F 10.1 °F 19.4 °F 86% 29.80 in 5.0 mi NW 15.0 mph 21.9 mph 0.48 in Snow Light Snow
6:44 PM 23.0 °F 9.2 °F 17.6 °F 80% 29.80 in 8.0 mi NW 17.3 mph - 0.48 in Snow Light Snow
6:53 PM 23.0 °F 11.7 °F 17.1 °F 78% 29.89 in 10.0 mi NW 11.5 mph - 0.48 in   Overcast
7:53 PM 21.0 °F 7.1 °F 14.0 °F 74% 29.91 in 10.0 mi NW 16.1 mph - 0.01 in   Mostly Cloudy
8:53 PM 19.4 °F 5.5 °F 12.2 °F 74% 29.85 in 10.0 mi NW 15.0 mph - N/A   Scattered Clouds
9:53 PM 18.0 °F 5.4 °F 10.9 °F 74% 29.96 in 10.0 mi NW 11.5 mph - 0.01 in   Clear
10:53 PM 15.1 °F 2.5 °F 9.0 °F 77% 29.98 in 10.0 mi WNW 10.4 mph - 0.39 in   Clear
11:53 PM 12.9 °F -0.2 °F 8.1 °F 81% 30.01 in 10.0 mi WNW 10.4 mph - 0.93 in   Clear